013  
ASUS44 KFWD 101715  
RWRTX  
NORTH TEXAS HOURLY WEATHER ROUNDUP  
NATIONAL WEATHER SERVICE FORT WORTH TX  
1200 PM CDT WED AUG 10 2022  
 
NOTE: "FAIR" INDICATES FEW OR NO CLOUDS BELOW 12,000 FEET WITH NO  
SIGNIFICANT WEATHER AND/OR S TO VISIBILITY
.  
 
TXZ118-119-101800-  
DALLAS/FORT WORTH METROPLEX  
 
CITY SKY/WX TMP DP RH WIND PRES REMARKS
 
DFW AIRPORT FAIR 95 68 41 W8G18 30.08R HX 99  
DALLAS LOVE FAIR 96 71 44 CALM 30.08S HX 103  
FTW MEACHAM PTSUNNY 90 71 53 W12 30.10R HX 96  
DAL-EXECUTIVE FAIR 94 70 45 W5 30.08S HX 100  
FTW-ALLIANCE PTSUNNY 91 70 49 NW14 30.10R HX 96  
FTW-NAS-JRB PTSUNNY 90 73 58 NW12G17 30.11 HX 98  
FTW-SPINKS PTSUNNY 95 66 38 W17 30.12R HX 98  
ARLINGTON PTSUNNY 95 69 42 W7 30.09S HX 100  
GRAND PRAIRIE SUNNY 95 66 38 W6 30.10S HX 98  
ADDISON MOSUNNY 95 68 41 W7 30.09S HX 99  
MESQUITE SUNNY 91 70 49 CALM 30.09S HX 97  

 
 
TXZ091>094-102>105-117-120-121-131>134-101800-  
NORTH CENTRAL TEXAS  
 
CITY SKY/WX TMP DP RH WIND PRES REMARKS
 
SHRMAN/DENISON SUNNY 91 68 46 N5 30.12S HX 95  
GAINESVILLE FAIR 91 69 49 W6 30.13S HX 95  
BOWIE FAIR 90 69 48 SW3 30.13R HX 94  
BRIDGEPORT FAIR 81 70 68 SW8 30.13F  
DECATUR FAIR 90 65 43 W7 30.13R HX 92  
DENTON FAIR 94 70 45 W7 30.09S HX 100  
MCKINNEY FAIR 92 72 51 VRB5 30.09S HX 99  
BONHAM PTSUNNY 90 72 54 NW3 30.11S HX 96  
GREENVILLE FAIR 91 72 52 CALM 30.10S HX 99  
ROCKWALL FAIR 91 72 53 CALM 30.09F HX 98  
TERRELL CLOUDY 93 70 46 CALM 30.09S HX 99  
WAXAHACHIE PTSUNNY 94 71 45 W3 30.10F HX 101  
CLEBURNE MOSUNNY 95 68 41 VRB3 30.11S HX 99  
GRANBURY FAIR 88 70 55 NW16G26 30.13R HX 92  

 
 
TXZ083>090-098>101-113>116-127>130-139>142-154-155-101800-  
WESTERN NORTH TEXAS  
 
CITY SKY/WX TMP DP RH WIND PRES REMARKS
 
WICHITA FALLS PTSUNNY 90 68 48 NE8 30.12R HX 94  
WF-KICKAPOO FAIR 87 68 52 NE6 30.13S HX 91  
VERNON FAIR 85 69 57 NW3 30.16R  
ABILENE PTSUNNY 86 66 51 N15G24 30.19R  
ABILENE-DYESS LGT RAIN 82 66 57 N13 30.18R  
GRAHAM FAIR 92 67 44 N7 30.12S HX 95  
BRECKENRIDGE FAIR 89 64 43 W7 30.15S HAZE  
CISCO FAIR 84 68 58 NW7 30.17R  
EASTLAND FAIR 85 67 54 N6 30.17S  
RANGER CLOUDY 83 66 56 N8 30.17R  
MINERAL WELLS LGT RAIN 81 73 76 W6 30.13R  
STEPHENVILLE CLOUDY 91 65 41 N20G25 30.17R HX 93  
COLEMAN FAIR 92 63 37 S3 30.16S HX 93  
SAN SABA FAIR 94 66 40 NW5 30.13F HX 97  

 
 
TXZ143>147-156>162-174-175-101800-  
CENTRAL TEXAS  
 
CITY SKY/WX TMP DP RH WIND PRES REMARKS
 
WACO FAIR 95 69 42 SE7 30.09S HX 100  
WACO-TSTC SUNNY 95 66 38 SW6 30.09 HX 98  
WACO-MCGREGOR FAIR 95 69 42 SE5 30.09F HX 100  
HILLSBORO FAIR 94 70 45 CALM 30.10S HX 100  
CORSICANA FAIR 95 67 39 SW5 30.10S HX 99  
MEXIA FAIR 94 70 44 SW7 30.09F HX 100  
HEARNE FAIR 93 72 49 SE3 30.10F HX 101  
TEMPLE FAIR 95 68 41 S8 30.10F HX 99  
KILLEEN FAIR 94 65 37 S7 30.08S HX 96  
KILLEEN-SKYLRK FAIR 96 68 39 S7 30.11S HX 101  
FORT HOOD FAIR 94 65 38 CALM 30.10F HX 96  
GATESVILLE FAIR 95 64 36 MISG 30.12S HX 97  
HAMILTON FAIR 96 64 33 S5 30.14S HX 98  
LAMPASAS FAIR 93 64 37 W5 N/A HX 95  

 
 
TXZ095>097-106>112-122>126-135>138-148>153-164>167-101800-  
EAST TEXAS  
 
CITY SKY/WX TMP DP RH WIND PRES REMARKS
 
PARIS FAIR 89 73 59 VRB3 30.11S HX 97  
SULPHUR SPRNGS PTSUNNY 87 72 60 N3 30.12S HX 93  
MOUNT PLEASANT FAIR 87 74 66 S5 30.10F HX 95  
ATLANTA PTSUNNY 84 77 81 SE8 30.11S HX 93  
GILMER FAIR 87 67 51 CALM 30.10F HX 90  
MINEOLA FAIR 90 72 55 E3 30.10F HX 96  
TYLER FAIR 93 70 46 MISG 30.09F HX 99  
LONGVIEW LGT RAIN 79 71 76 W7 30.11R  
MARSHALL CLOUDY 73 70 92 NE3 30.14F  
ATHENS PTSUNNY 95 68 41 CALM 30.08F HX 99  
PALESTINE PTSUNNY 93 70 46 S8 30.09F HX 99  
HENDERSON FAIR 96 62 32 W7 30.12S HX 96  
CENTER PTSUNNY 88 72 58 CALM 30.11F HX 94  
NACOGDOCHES PTSUNNY 90 74 59 SW7 30.11F HX 99  
LUFKIN FAIR 91 72 53 CALM 30.10F HX 98  

 
 
SUPPLEMENTAL OBSERVATIONS (NWS FORT WORTH AREA)  
 
CITY SKY/WX TMP DP RH WIND PRES REMARKS
 
CADDO GRASSLND N/A 88 77 70 E3 N/A HX 100  
LBJ GRASSLAND N/A 91 68 46 SW6 N/A HX 95  
POSSUM KINGDOM N/A 91 66 43 SW5 N/A HX 94  
GRANBURY N/A 90 68 48 NW14 N/A HX 93  
COMANCHE N/A 95 63 34 SW6G14 N/A HX 96  
MCGREGOR N/A 99 66 34 S6G14 N/A HX 102  
TEMPLE N/A 91 68 46 W6 N/A HX 95  
LAKE LIMESTONE N/A 95 75 52 W3G12 N/A HX 107  
PALESTINE N/A 95 68 41 S3 N/A HX 99  

 
 
SUPPLEMENTAL OBSERVATIONS (NWS NORMAN AREA)  
 
CITY SKY/WX TMP DP RH WIND PRES REMARKS
 
GOODLETT N/A 85 69 60 CALM 30.18S  
ODELL N/A 85 73 67 CALM 30.17S HX 91  
CROWELL N/A 89 68 49 SW6 30.18R HX 92  
KNOX CITY N/A 80 73 80 CALM 30.19R  
SEYMOUR N/A 83 75 78 W8 30.16R HX 90  
MILLERS CREEK N/A 84 70 61 SW6 N/A  

 
 
SUPPLEMENTAL OBSERVATIONS (NWS SAN ANGELO AREA)  
 
CITY SKY/WX TMP DP RH WIND PRES REMARKS
 
WEINERT N/A 80 68 67 CALM 30.19R  
HASKELL N/A 78 72 81 SW10 30.18S  
THROCKMORTON N/A 83 69 62 CALM 30.15F  
STAMFORD LGT RAIN 76 71 85 W6 30.21R  
CLYDE N/A 82 69 64 E9 30.23R  
HAMBY N/A 86 64 48 N5G16 N/A  
IVIE RESERVOIR N/A 95 64 36 NW6 N/A HX 97  
COLORADO BEND N/A 95 63 34 S6G20 N/A HX 96  

 
 
SUPPLEMENTAL OBSERVATIONS (NWS SHREVEPORT AREA)  
 
CITY SKY/WX TMP DP RH WIND PRES REMARKS
 
TEXARKANA N/A 84 75 74 S2 N/A HX 92  
CADDO LAKE N/A 79 75 89 SW1 N/A  
LUFKIN N/A 91 72 52 MISG N/A HX 98  
N SABINE NF N/A 88 75 66 MISG N/A HX 97  

 
 
SUPPLEMENTAL OBSERVATIONS ARE A COLLECTION OF AUTOMATED INSTRUMENTS  
THAT ARE MAINTAINED BY A VARIETY OF FEDERAL AND STATE AGENCIES.  
CERTAIN ELEMENTS...SUCH AS HUMIDITY VALUES AND SUSTAINED WIND  
SPEEDS...MAY BE APPROXIMATED.  
 
 
 
CLICK HERE TO GO TO PREVIOUS BULLETINS.

The Nexlab TX Page Main Text Page

The Nexlab TX Page Main Text Page